Weather in Sosnovoborsk

Russia / Krasnoyarsk Krai     56°07′12″N   93°20′07″E
temp.,
°C
wind,
m/s
gust,
m/s
humid.,
%
clouds,
%
prec.,
mm/h
press.,
hPa
HPBL,
m
4 july, mon
mon401:00+11s22946 0.1 100725
04:00+10ssw22945 0.0 100815
07:00+14ssw11825 0.0 1008181
10:00+20w025735 0.1 10071155
13:00+21s12585 1.4 10071341
16:00+23wnw244595 0.1 10062037
19:00+20ne01725 0.5 1006396
22:00+15se11855 0.1 100611
5 july, tue
tue501:00+13se11891 0.1 100711
04:00+12se22925 0.0 100614
07:00+15ese24810 0.0 1005231
10:00+22ese46530 0.0 1003980
13:00+24ese56420 0.0 10021906
16:00+25ese45416 0.0 10012153
19:00+24e36540 0.0 1000410
22:00+16e22736 0.0 100014
6 july, wed
wed601:00+14se118545 0.0 99912
04:00+13sse228915 0.0 99925
07:00+18wsw257399 0.0 1000273
10:00+21w456299 0.0 10011076
13:00+21wsw566495 0.0 1002803
16:00+15wsw3992100 0.8 1004440
19:00+14sw2293100 0.9 100576
22:00+14sse119383 0.0 100616
7 july, thu
thu701:00+13ssw2194100 0.1 100621
04:00+13ssw2294100 0.0 100616
07:00+15sw118896 0.0 100797
10:00+20se026986 0.7 1006629
13:00+21nw126495 2.4 1006944
16:00+19wsw237754 1.9 1006437
19:00+18wsw368829 4.2 1006355
22:00+14ssw229246 1.0 100722
8 july, fri
fri801:00+12ssw229478 1.0 100725
04:00+13sw2194100 0.0 100732
07:00+14sw129476 0.9 1008118
10:00+15wsw248996 0.1 1008445
13:00+17wnw348058 0.4 1008641
16:00+19nw347037 0.3 1007989
19:00+17nnw2482100 0.6 1007141
22:00+15nw119157 0.1 100712